Waarnemingen

Advertentie
Mijn weer
Sa Pobla, Spanje (8312): temperatuur & dauwpunt: 12.11.2018 17:00:00 - 18.11.2018 17:00:00 (CET)Sa Pobla, Spanje (8312): windsnelheid & windstoten: 12.11.2018 17:00:00 - 18.11.2018 17:00:00 (CET)Sa Pobla, Spanje (8312): windrichting: 12.11.2018 17:00:00 - 18.11.2018 17:00:00 (CET)Sa Pobla, Spanje (8312): luchtdruk: 12.11.2018 17:00:00 - 18.11.2018 17:00:00 (CET)Sa Pobla, Spanje (8312): zicht: 12.11.2018 17:00:00 - 18.11.2018 17:00:00 (CET)Sa Pobla, Spanje (8312): Zonneschijnduur: 12.11.2018 17:00:00 - 18.11.2018 17:00:00 (CET)Sa Pobla, Spanje (8312): neerslag: 12.11.2018 17:00:00 - 18.11.2018 17:00:00 (CET)
Datum & Tijd tt [°C] td [°C] ff [km/u] ff [kn] fx [km/u] fx [kn] dd ppp [hPa] vv [km] sd [min] rr [mm]
18.11.2018 17:00:00 15,6 12,1 5 3 16 9 NNO 1009,4 20 0 0,0
18.11.2018 16:00:00 16,1 11,7 10 5 19 10 O 1009,5 20 1 0,0
18.11.2018 15:00:00 15,3 11,3 6 3 27 15 ONO 1009,5 20 0 0,8
18.11.2018 14:00:00 16,7 11,2 5 3 17 9 ONO 1010,3 20 1 0,0
18.11.2018 13:00:00 16,0 12,3 9 5 24 13 O 1010,7 20 11 -
18.11.2018 12:00:00 17,5 11,6 8 4 16 9 O 1011,3 20 52 0,0
18.11.2018 11:00:00 15,3 13,7 2 1 5 3 NNW 1012,0 20 50 0,0
18.11.2018 10:00:00 11,8 11,3 2 1 6 3 ZZW 1012,2 17 27 0,0
18.11.2018 09:00:00 9,3 9,0 5 3 10 5 Z 1012,1 20 42 0,0
18.11.2018 08:00:00 7,2 6,7 3 2 8 4 Z 1011,9 15 7 0,0
18.11.2018 07:00:00 7,2 6,7 4 2 11 6 Z 1012,0 14 0 -
18.11.2018 06:00:00 7,3 6,8 4 2 11 6 ZZW 1011,9 14 0 0,0
18.11.2018 05:00:00 7,5 6,8 7 4 10 6 Z 1012,2 14 0 0,2
18.11.2018 04:00:00 8,0 7,4 5 3 9 5 ZW 1012,5 14 0 0,0
18.11.2018 03:00:00 7,9 7,1 5 3 8 4 Z 1012,7 9 0 0,0
18.11.2018 02:00:00 8,6 7,8 2 1 10 6 Z 1013,1 9 0 0,0
18.11.2018 01:00:00 9,3 8,5 6 3 11 6 ZZW 1013,8 12 0 -
18.11.2018 00:00:00 9,5 8,5 4 2 6 4 ZZW 1014,3 12 0 0,0
17.11.2018 23:00:00 10,4 9,2 4 2 11 6 Z 1014,5 16 0 0,0
17.11.2018 22:00:00 11,1 10,0 6 4 11 6 NW 1014,8 20 0 0,0
17.11.2018 21:00:00 12,1 10,6 3 1 10 6 NW 1014,8 10 0 0,0
17.11.2018 20:00:00 13,1 11,7 6 3 11 6 NNW 1014,8 20 0 0,0
17.11.2018 19:00:00 13,7 12,1 6 3 9 5 NNW 1014,9 16 0 -
17.11.2018 18:00:00 15,0 12,8 6 3 14 8 NNW 1014,7 20 0 0,6
17.11.2018 17:00:00 15,7 12,6 3 2 9 5 N 1014,6 20 0 0,0
17.11.2018 16:00:00 15,5 12,2 4 2 26 14 ONO 1014,8 20 0 0,0
17.11.2018 15:00:00 16,2 11,8 21 11 33 18 NNO 1015,1 20 0 0,0
17.11.2018 14:00:00 16,6 11,3 18 10 32 17 NNO 1015,3 20 0 0,0
17.11.2018 13:00:00 17,5 12,2 14 8 21 11 NO 1015,7 20 17 -
17.11.2018 12:00:00 19,6 11,9 6 3 19 11 NO 1016,1 20 56 0,0
17.11.2018 11:00:00 18,5 12,2 6 3 11 6 NNO 1016,7 20 60 0,0
17.11.2018 10:00:00 13,7 12,6 2 1 10 5 WZW 1017,0 20 6 0,0
17.11.2018 09:00:00 11,6 10,9 3 2 8 4 Z 1017,2 20 16 0,0
17.11.2018 08:00:00 10,3 9,6 6 3 9 5 ZZW 1017,3 19 0 0,0
17.11.2018 07:00:00 10,3 9,2 2 1 6 3 WNW 1017,4 11 0 -
17.11.2018 06:00:00 12,0 10,8 4 2 6 4 WNW 1017,5 19 0 0,0
17.11.2018 05:00:00 13,5 11,6 5 3 14 8 N 1017,8 20 0 0,0
17.11.2018 04:00:00 14,0 12,0 6 4 11 6 N 1018,4 20 0 0,0
17.11.2018 03:00:00 14,9 12,5 5 3 16 8 NNW 1019,0 20 0 0,0
17.11.2018 02:00:00 15,5 12,8 10 5 18 10 N 1019,2 20 0 0,0
17.11.2018 01:00:00 16,1 13,8 8 4 19 10 NO 1019,5 20 0 -
17.11.2018 00:00:00 15,8 14,1 7 4 15 8 NO 1019,6 20 0 0,0
16.11.2018 23:00:00 15,1 13,3 3 1 10 6 N 1019,8 16 0 0,0
16.11.2018 22:00:00 15,9 13,9 8 4 16 9 N 1019,9 20 0 0,0
16.11.2018 21:00:00 16,0 14,7 9 5 14 7 N 1019,8 16 0 0,0
16.11.2018 20:00:00 14,6 13,0 3 2 9 5 WNW 1019,8 8 0 0,0
16.11.2018 19:00:00 15,7 13,4 7 4 13 7 NNW 1019,8 12 0 -
16.11.2018 18:00:00 16,6 13,0 8 5 18 10 N 1019,9 17 0 0,0
16.11.2018 17:00:00 17,5 13,1 12 7 22 12 NNO 1019,9 20 28 0,0
16.11.2018 16:00:00 18,9 13,3 14 7 29 15 NO 1019,9 20 25 0,0
16.11.2018 15:00:00 19,1 13,8 22 12 35 19 NO 1019,9 20 22 0,0
16.11.2018 14:00:00 20,1 14,4 18 10 29 16 NO 1020,2 20 48 0,0
16.11.2018 13:00:00 20,8 14,4 14 8 28 15 NO 1020,8 20 36 -
16.11.2018 12:00:00 20,7 14,8 14 7 26 14 NO 1021,4 20 55 0,0
16.11.2018 11:00:00 20,3 15,7 12 7 24 13 ONO 1021,7 20 28 0,0
16.11.2018 10:00:00 19,3 16,1 10 6 19 11 ONO 1021,4 20 56 0,0
16.11.2018 09:00:00 17,3 16,0 3 2 8 4 N 1021,2 15 58 0,0
16.11.2018 08:00:00 16,0 15,1 5 3 13 7 NNO 1020,8 12 0 0,0
16.11.2018 07:00:00 16,1 15,3 7 4 16 9 NO 1020,4 14 0 -
16.11.2018 06:00:00 16,6 15,8 9 5 16 9 NO 1020,2 10 0 0,0
16.11.2018 05:00:00 16,7 16,0 9 5 16 9 NO 1020,1 11 0 0,0
16.11.2018 04:00:00 16,7 16,2 7 4 11 6 NNO 1020,1 7 0 0,0
16.11.2018 03:00:00 16,8 16,3 6 3 13 7 NNO 1020,3 6 0 0,0
16.11.2018 02:00:00 16,8 16,1 5 3 12 6 N 1020,5 6 0 0,0
16.11.2018 01:00:00 16,9 16,1 8 4 15 8 NNO 1020,6 6 0 -
16.11.2018 00:00:00 17,2 16,6 9 5 14 7 N 1020,6 8 0 0,0
15.11.2018 23:00:00 16,7 15,9 7 4 11 6 N 1020,3 7 0 0,0
15.11.2018 22:00:00 17,1 16,0 5 3 10 6 N 1020,0 9 0 0,0
15.11.2018 21:00:00 17,7 16,6 4 2 8 5 NNW 1019,8 10 0 0,0
15.11.2018 20:00:00 18,1 16,8 8 4 13 7 NNO 1019,6 13 0 0,0
15.11.2018 19:00:00 18,3 17,0 9 5 12 7 NNO 1019,3 11 0 -
15.11.2018 18:00:00 18,5 17,1 9 5 20 11 NNO 1019,1 11 0 0,0
15.11.2018 17:00:00 19,2 17,5 10 6 23 12 NO 1018,8 13 0 0,0
15.11.2018 16:00:00 19,6 17,4 16 9 26 14 NO 1018,5 15 11 0,0
15.11.2018 15:00:00 20,2 17,1 11 6 22 12 NO 1018,4 18 6 0,0
15.11.2018 14:00:00 20,6 17,2 9 5 19 10 NO 1018,8 20 3 0,0
15.11.2018 13:00:00 20,8 17,1 9 5 21 11 ONO 1019,3 19 33 -
15.11.2018 12:00:00 21,0 17,6 11 6 21 11 NO 1019,8 16 27 0,0
15.11.2018 11:00:00 20,2 17,4 8 4 16 8 N 1020,2 20 48 0,0
15.11.2018 10:00:00 17,8 17,5 1 1 7 4 OZO 1020,2 13 22 0,0
15.11.2018 09:00:00 16,4 16,2 2 1 9 5 W 1020,4 7 0 0,2
15.11.2018 08:00:00 15,2 15,1 8 4 9 5 W 1020,1 8 0 0,0
15.11.2018 07:00:00 14,6 14,4 4 2 8 5 ZZO 1019,4 4,0 0 -
15.11.2018 06:00:00 15,4 15,3 4 2 9 5 NW 1019,2 8 0 0,0
15.11.2018 05:00:00 15,3 15,0 5 3 8 5 WNW 1019,7 6 0 0,0
15.11.2018 04:00:00 15,1 14,8 3 1 9 5 ZZO 1020,2 2,8 0 0,2
15.11.2018 03:00:00 16,0 15,7 4 2 8 4 NW 1020,7 7 0 0,4
15.11.2018 02:00:00 16,2 15,9 5 3 7 4 W 1021,3 10 0 0,0
15.11.2018 01:00:00 15,9 15,4 1 1 6 3 NW 1021,7 3,7 0 -
15.11.2018 00:00:00 16,3 15,8 2 1 8 5 NW 1022,0 5 0 0,0
14.11.2018 23:00:00 16,0 15,5 3 2 6 4 NNW 1022,1 4,7 0 0,0
14.11.2018 22:00:00 15,8 15,2 2 1 7 4 W 1022,3 3,1 0 0,0
14.11.2018 21:00:00 16,3 15,7 3 2 9 5 N 1022,4 1,8 0 0,0
14.11.2018 20:00:00 16,7 15,9 6 3 8 4 NW 1022,7 6 0 0,0
14.11.2018 19:00:00 17,2 16,2 5 3 8 5 NNW 1022,8 8 0 -
14.11.2018 18:00:00 17,8 16,1 4 2 13 7 NNO 1022,5 9 0 0,0
14.11.2018 17:00:00 19,4 15,7 9 5 14 8 NNO 1022,3 17 11 0,0
14.11.2018 16:00:00 20,4 16,0 8 4 16 9 NO 1022,7 20 5 0,0
14.11.2018 15:00:00 20,8 16,4 11 6 20 11 NNO 1022,9 19 39 0,0
14.11.2018 14:00:00 20,7 16,1 14 8 19 10 NNO 1023,2 20 60 0,0
14.11.2018 13:00:00 21,6 14,5 5 3 13 7 ONO 1023,7 20 60 -
14.11.2018 12:00:00 20,8 16,6 4 2 8 5 NO 1024,7 20 60 0,0
14.11.2018 11:00:00 19,7 15,8 5 3 8 5 NNO 1025,3 20 60 0,0
14.11.2018 10:00:00 16,7 14,7 1 1 6 4 ZZO 1025,5 20 60 0,0
14.11.2018 09:00:00 12,5 11,9 4 2 8 4 Z 1025,6 13 60 0,0
14.11.2018 08:00:00 10,0 9,6 4 2 9 5 ZW 1025,4 12 7 0,0
14.11.2018 07:00:00 10,0 9,6 3 1 8 5 ZZO 1025,0 9 0 -
14.11.2018 06:00:00 10,3 9,7 3 2 9 5 WZW 1024,9 10 0 0,0
14.11.2018 05:00:00 11,5 11,0 7 4 11 6 ZZW 1025,0 19 0 0,0
14.11.2018 04:00:00 11,4 10,8 6 3 8 5 ZZW 1024,8 9 0 0,0
14.11.2018 03:00:00 11,7 11,1 5 3 10 6 Z 1025,2 10 0 0,0
14.11.2018 02:00:00 12,5 11,9 6 3 10 5 Z 1025,4 7 0 0,0
14.11.2018 01:00:00 13,1 12,4 5 3 10 6 ZW 1025,6 9 0 -
14.11.2018 00:00:00 12,9 12,0 4 2 6 4 Z 1025,7 19 0 0,0
13.11.2018 23:00:00 13,6 12,6 3 1 5 3 ZW 1025,8 15 0 0,0
13.11.2018 22:00:00 13,9 13,0 4 2 7 4 W 1025,8 18 0 0,0
13.11.2018 21:00:00 14,7 13,6 3 2 5 3 ZW 1025,4 13 0 0,0
13.11.2018 20:00:00 15,7 14,4 3 2 7 4 WZW 1025,4 11 0 0,0
13.11.2018 19:00:00 17,1 15,8 5 3 8 4 NW 1025,1 11 0 -
13.11.2018 18:00:00 18,1 15,9 5 3 11 6 N 1024,7 12 0 0,0
13.11.2018 17:00:00 19,4 15,3 9 5 15 8 NNO 1024,2 20 17 0,0
13.11.2018 16:00:00 21,0 14,9 10 5 18 10 NNO 1024,1 20 59 0,0
13.11.2018 15:00:00 20,8 13,9 12 7 22 12 NNO 1023,9 20 14 0,0
13.11.2018 14:00:00 21,1 16,3 14 8 22 12 NNO 1023,8 18 60 0,0
13.11.2018 13:00:00 21,4 17,6 11 6 18 10 NO 1023,9 20 45 -
13.11.2018 12:00:00 19,9 15,3 7 4 11 6 NO 1024,0 20 56 0,0
13.11.2018 11:00:00 19,6 15,1 2 1 6 3 O 1024,3 20 60 0,0
13.11.2018 10:00:00 16,0 14,0 2 1 6 4 ZZW 1024,2 20 30 0,0
13.11.2018 09:00:00 13,9 13,0 2 1 6 4 NW 1023,6 20 0 0,0
13.11.2018 08:00:00 12,9 12,0 4 2 10 5 ZW 1023,1 20 0 0,0
13.11.2018 07:00:00 12,9 12,0 4 2 8 4 ZZW 1022,1 20 0 -
13.11.2018 06:00:00 12,9 12,0 5 3 9 5 ZZW 1022,0 20 0 0,0
13.11.2018 05:00:00 12,9 12,1 7 4 11 6 ZZW 1021,7 20 0 0,0
13.11.2018 04:00:00 12,9 12,1 8 4 11 6 ZZW 1021,5 15 0 0,0
13.11.2018 03:00:00 13,1 12,0 5 3 9 5 Z 1021,6 17 0 0,0
13.11.2018 02:00:00 13,4 12,3 4 2 8 4 WZW 1021,4 20 0 0,0
13.11.2018 01:00:00 13,7 12,6 5 3 9 5 ZZW 1021,1 20 0 -
13.11.2018 00:00:00 13,5 12,5 3 2 8 4 Z 1020,9 20 0 0,0
12.11.2018 23:00:00 14,1 13,0 4 2 8 5 ZW 1020,9 16 0 0,0
12.11.2018 22:00:00 14,2 13,0 5 3 9 5 WZW 1020,7 15 0 0,0
12.11.2018 21:00:00 14,4 13,2 4 2 6 3 ZW 1020,4 13 0 0,0
12.11.2018 20:00:00 15,1 13,0 4 2 8 4 W 1020,0 13 0 0,0
12.11.2018 19:00:00 16,6 13,2 2 1 15 8 ZZW 1019,6 20 0 -
12.11.2018 18:00:00 18,0 13,3 6 4 12 7 ZZO 1018,7 20 0 0,0
12.11.2018 17:00:00 20,1 13,6 7 4 16 9 Z 1018,2 20 7 0,0

tt = temperatuur
td = dauwpunt
ff = windsnelheid
fx = windstoten
dd = windrichting
ppp = luchtdruk
vv = zicht
sd = Zonneschijnduur
rr = neerslag

Weerstations in de omgeving